Location: Gerlach
(40.6516°N, 119.3568°W)
Time: 10:03:13
(UTC-07:00)

Vanguard 2 Rocket - Pass Details

Date: 26 February 2024
Orbit: 555 x 3307 km, 32.9° (Epoch: 11 April)

Event Time Altitude Azimuth Distance (km) Brightness Sun altitude
Rises 21:55:59 0° 272° (W) 6,799 11.9 -46.2°
Reaches altitude 10° 22:04:03 10° 251° (WSW) 6,122 11.3 -47.4°
Maximum altitude 22:12:06 14° 226° (SW) 5,901 11.0 -48.5°
Enters shadow 22:19:58 10° 202° (SSW) 6,146 10.9 -49.6°
